Location: Alafon
(8.4500°N, 4.2333°E)
Time: 09:50:23
(UTC+00:00)

A-11 Canister half - Pass Details

Date: 06 August 2021
Orbit: 1515 x 1685 km, 47.2° (Epoch: 21 September)

Event Time Altitude Azimuth Distance (km) Brightness Sun altitude
Rises 10:37:32 0° 186° (S) 4,649 11.4 70.8°
Reaches altitude 10° 10:41:56 10° 168° (SSE) 3,674 11.1 71.8°
Maximum altitude 10:47:40 18° 129° (SE) 3,111 11.0 73.0°
Drops below altitude 10° 10:53:25 10° 90° (E) 3,721 11.4 74.2°
Sets 10:57:51 0° 72° (ENE) 4,733 11.8 75.1°
